FW4395 Weather Reports


time (UTC)temp
F
wind
direction
speed
knots
gust
knots
rain 1hr
in
rain 24hr
in
rain mn
in
humidity
%
barometer
mb
20260906234505 56 154 0.0 0.9 0.00 0.10 0.05 90 1016.6
20260906233505 56 182 0.0 0.0 0.00 0.11 0.05 91 1016.5
20260906232006 56 152 0.9 2.6 0.00 0.11 0.05 90 1016.5
20260906231505 56 121 0.0 1.7 0.00 0.12 0.05 90 1016.6
20260906230506 56 98 0.9 1.7 0.00 0.12 0.05 90 1016.7
20260906230005 56 157 0.0 1.7 0.00 0.12 0.05 90 1016.8
20260906225505 56 151 1.7 5.2 0.00 0.12 0.05 89 1016.8
20260906225005 56 141 0.9 2.6 0.00 0.12 0.05 90 1016.8
20260906224505 56 138 1.7 4.3 0.00 0.12 0.05 89 1016.9
20260906224005 56 122 1.7 2.6 0.00 0.12 0.05 91 1016.9
20260906223506 56 183 0.9 2.6 0.00 0.13 0.05 92 1016.8
20260906222506 55 295 0.9 1.7 0.00 0.13 0.05 93 1016.8
20260906222005 55 161 0.0 1.7 0.00 0.13 0.05 94 1016.8
20260906221505 54 136 0.9 1.7 0.00 0.13 0.05 94 1016.9
20260906221005 54 79 0.0 1.7 0.00 0.14 0.05 93 1016.8
20260906220505 54 193 0.0 0.9 0.00 0.15 0.05 93 1017.1
20260906220005 54 139 0.0 2.6 0.00 0.16 0.05 93 1017.1
20260906214505 54 124 0.0 1.7 0.00 0.17 0.05 94 1017.0
20260906214005 54 111 1.7 2.6 0.00 0.17 0.05 94 1017.0
20260906212505 54 147 0.9 1.7 0.00 0.17 0.05 94 1017.1
20260906212005 54 151 1.7 4.3 0.00 0.17 0.05 94 1017.1
20260906211505 54 140 0.9 2.6 0.00 0.18 0.05 93 1017.1
20260906211004 54 130 1.7 4.3 0.00 0.18 0.05 93 1017.1
20260906210505 54 119 1.7 5.2 0.00 0.18 0.05 94 1017.1
20260906210005 54 125 2.6 7.0 0.00 0.18 0.05 93 1017.1
20260906205505 54 142 0.9 2.6 0.00 0.18 0.05 94 1017.2
20260906205005 54 161 1.7 2.6 0.00 0.18 0.05 95 1017.2
20260906204005 53 95 1.7 4.3 0.00 0.18 0.05 95 1017.2
20260906203505 53 142 1.7 2.6 0.00 0.19 0.05 95 1017.2
20260906203005 53 147 0.9 2.6 0.00 0.19 0.05 95 1017.3
20260906202505 53 153 0.0 2.6 0.00 0.19 0.05 95 1017.2
20260906201505 53 127 0.9 2.6 0.01 0.20 0.05 96 1017.3
20260906201005 53 145 0.9 2.6 0.01 0.20 0.05 96 1017.4
20260906200505 53 149 0.9 2.6 0.01 0.20 0.05 96 1017.5
20260906200005 53 134 1.7 2.6 0.01 0.21 0.05 96 1017.4
20260906195505 52 140 1.7 2.6 0.01 0.21 0.05 96 1017.5
20260906195005 52 122 1.7 6.1 0.01 0.21 0.05 96 1017.6
20260906194504 52 146 0.9 2.6 0.01 0.21 0.05 96 1017.6
20260906194005 52 147 0.9 1.7 0.01 0.21 0.05 96 1017.6
20260906193505 52 253 0.9 2.6 0.01 0.21 0.05 96 1017.6
20260906193004 52 182 0.9 2.6 0.01 0.21 0.05 96 1017.6
20260906192005 51 133 0.9 2.6 0.01 0.21 0.05 96 1017.7
20260906191505 51 119 0.9 4.3 0.00 0.20 0.04 96 1017.8
20260906191005 51 339 0.0 1.7 0.00 0.20 0.04 96 1017.8
20260906190505 51 169 0.9 2.6 0.00 0.20 0.04 96 1017.9
20260906190005 51 235 0.9 2.6 0.00 0.20 0.04 96 1018.0
20260906185004 51 124 1.7 5.2 0.00 0.21 0.04 96 1018.0
20260906184005 51 70 0.9 2.6 0.00 0.21 0.04 96 1018.0
20260906183504 51 76 0.9 2.6 0.00 0.21 0.04 96 1018.0
20260906183005 51 81 0.9 2.6 0.00 0.21 0.04 96 1018.0
20260906182505 50 172 0.0 4.3 0.00 0.21 0.04 96 1018.1
20260906182004 50 167 0.0 1.7 0.00 0.21 0.04 96 1018.2
20260906181533 50 2 0.0 2.6 0.00 0.21 0.04 96 1018.2
20260906181012 50 105 0.0 2.6 0.00 0.21 0.04 96 1018.2
20260906180505 50 142 0.0 1.7 0.01 0.21 0.04 96 1018.3
20260906175505 50 89 0.9 1.7 0.02 0.21 0.04 96 1018.2
20260906175004 50 99 0.0 2.6 0.02 0.21 0.04 96 1018.4
20260906174504 50 154 0.9 0.9 0.02 0.21 0.04 96 1018.3
20260906173505 49 102 0.0 0.9 0.02 0.21 0.04 96 1018.5
20260906173005 49 100 0.9 2.6 0.02 0.21 0.04 96 1018.5
20260906172505 49 55 0.0 1.7 0.02 0.21 0.04 96 1018.6
20260906171505 49 129 0.0 1.7 0.02 0.21 0.04 96 1018.7
20260906171004 49 66 0.0 2.6 0.02 0.21 0.04 95 1018.7
20260906170505 49 313 0.0 1.7 0.02 0.20 0.03 95 1018.8
20260906164505 48 309 0.0 0.0 0.01 0.19 0.02 95 1019.1
20260906164005 48 309 0.0 0.0 0.01 0.19 0.02 95 1019.0
20260906163505 48 309 0.0 0.9 0.01 0.19 0.02 95 1019.0
20260906163004 48 309 0.0 0.0 0.01 0.19 0.02 95 1019.0
20260906162504 48 309 0.0 0.9 0.01 0.19 0.02 95 1019.1
20260906162004 48 309 0.0 0.9 0.01 0.19 0.02 95 1019.2
20260906161505 48 309 0.0 0.9 0.01 0.19 0.02 95 1019.2
20260906161005 47 309 0.9 0.9 0.01 0.19 0.02 95 1019.1
20260906160505 47 309 0.9 0.9 0.00 0.18 0.01 95 1019.1
20260906160004 47 309 0.0 0.9 0.00 0.18 0.01 95 1019.1
20260906155504 47 309 0.0 1.7 0.00 0.18 0.01 95 1019.1
20260906155004 47 286 0.9 1.7 0.00 0.18 0.01 96 1019.1
20260906154505 47 265 0.0 0.9 0.00 0.18 0.01 96 1019.2
20260906154005 47 265 0.0 0.9 0.00 0.18 0.01 96 1019.2
20260906153504 47 265 0.0 0.9 0.00 0.18 0.01 96 1019.1
20260906153004 47 265 0.0 0.9 0.00 0.18 0.01 96 1019.1
20260906152505 47 265 0.0 0.9 0.00 0.18 0.01 96 1019.1
20260906152005 46 265 0.0 0.9 0.00 0.18 0.01 96 1019.1
20260906151505 47 264 0.9 1.7 0.00 0.18 0.01 97 1019.1
20260906151004 47 240 0.0 0.9 0.00 0.18 0.01 97 1019.2
20260906150505 47 296 0.0 0.0 0.00 0.18 0.01 97 1019.1
20260906150005 46 333 0.0 0.0 0.00 0.18 0.01 97 1019.2
20260906145504 46 333 0.0 0.0 0.00 0.18 0.01 97 1019.3
20260906145004 46 333 0.0 0.9 0.00 0.18 0.01 97 1019.1
20260906144505 46 333 0.0 0.9 0.00 0.18 0.01 97 1019.0
20260906144005 46 333 0.0 0.9 0.00 0.18 0.01 97 1019.0
20260906143504 45 333 0.9 0.9 0.00 0.18 0.01 97 1018.9
20260906143004 45 333 0.0 0.0 0.00 0.18 0.01 97 1019.0
20260906142504 45 333 0.0 0.0 0.00 0.18 0.01 97 1019.1
20260906142005 45 333 0.0 0.9 0.01 0.18 0.01 97 1019.2
20260906141505 45 333 0.9 1.7 0.01 0.18 0.01 97 1019.2
20260906141004 45 313 0.0 0.9 0.01 0.18 0.01 96 1019.1
20260906140504 45 313 0.9 0.9 0.01 0.18 0.01 97 1019.1
20260906140004 45 278 0.9 0.9 0.01 0.18 0.01 97 1019.2
20260906135505 45 272 0.0 0.9 0.01 0.18 0.01 96 1019.2
20260906135004 45 247 0.9 1.7 0.01 0.18 0.01 96 1019.3
20260906134505 45 255 0.9 0.9 0.01 0.18 0.01 96 1019.3
20260906134005 45 243 0.0 0.9 0.01 0.18 0.01 96 1019.3
20260906133005 45 256 1.7 2.6 0.01 0.18 0.01 96 1019.2
20260906132504 45 248 1.7 1.7 0.01 0.18 0.01 96 1019.4
20260906131505 45 97 0.0 0.9 0.00 0.17 0.00 96 1019.3
20260906131005 45 97 0.0 0.0 0.00 0.17 0.00 96 1019.3
20260906130505 45 97 0.0 0.9 0.00 0.17 0.00 96 1019.4
20260906130005 45 97 0.0 0.9 0.00 0.17 0.00 96 1019.5
20260906125004 46 97 0.0 0.0 0.00 0.17 0.00 96 1019.4
20260906124004 46 97 0.0 0.9 0.00 0.17 0.00 96 1019.5
20260906123505 46 97 0.0 0.9 0.00 0.17 0.00 96 1019.6
20260906123005 46 97 0.0 0.0 0.00 0.17 0.00 97 1019.5
20260906122505 46 81 0.0 0.9 0.00 0.17 0.00 97 1019.7
20260906122005 46 77 0.0 0.0 0.00 0.17 0.00 97 1019.6
20260906121005 46 77 0.9 1.7 0.00 0.17 0.00 97 1019.8
20260906120505 46 247 0.0 0.0 0.00 0.17 0.00 97 1020.0
20260906120004 46 247 0.0 0.0 0.00 0.17 0.00 97 1020.1
20260906115504 46 247 0.0 0.0 0.00 0.17 0.00 96 1020.3
20260906115004 45 247 0.0 0.0 0.00 0.17 0.00 96 1020.5
20260906114504 45 247 0.0 0.9 0.00 0.17 0.00 96 1020.4
20260906114004 46 247 0.0 0.9 0.00 0.17 0.00 96 1020.4
20260906113505 46 256 0.0 0.9 0.00 0.17 0.00 96 1020.3
20260906113004 46 256 0.9 0.9 0.00 0.17 0.00 96 1020.3
20260906112505 46 192 0.0 0.9 0.00 0.17 0.00 96 1020.4
20260906112005 46 192 0.0 0.0 0.00 0.17 0.00 96 1020.4
20260906111505 46 192 0.0 0.0 0.00 0.17 0.00 96 1020.4
20260906110505 45 192 0.0 0.9 0.00 0.17 0.00 96 1020.6
20260906110004 45 244 0.0 1.7 0.00 0.17 0.00 96 1020.5
20260906105005 45 199 0.9 0.9 0.00 0.17 0.00 96 1020.7
20260906104505 45 199 0.0 0.0 0.00 0.17 0.00 96 1020.7
20260906104004 45 199 0.0 0.9 0.00 0.17 0.00 96 1020.5
20260906103505 46 199 0.9 0.9 0.00 0.17 0.00 96 1020.6
20260906102505 46 122 0.0 0.9 0.00 0.17 0.00 96 1020.2
20260906102005 46 122 0.0 0.9 0.00 0.17 0.00 97 1020.3
20260906101505 46 121 0.0 0.9 0.00 0.17 0.00 97 1020.4
20260906101004 46 110 0.9 1.7 0.00 0.17 0.00 97 1020.3
20260906100505 45 74 0.0 1.7 0.00 0.17 0.00 96 1020.3
20260906100004 45 74 0.0 0.9 0.00 0.17 0.00 96 1020.3
20260906094505 46 74 0.0 0.9 0.00 0.17 0.00 96 1020.7
20260906093505 45 74 0.0 1.7 0.00 0.17 0.00 96 1020.9
20260906093004 45 70 1.7 2.6 0.00 0.17 0.00 96 1020.8
20260906092504 45 200 0.9 0.9 0.00 0.17 0.00 96 1020.8
20260906092004 46 238 0.0 0.9 0.00 0.17 0.00 96 1020.8
20260906091504 46 238 0.0 0.9 0.00 0.17 0.00 96 1020.8
20260906091005 46 238 0.0 0.9 0.00 0.17 0.00 96 1020.8
20260906090505 46 238 0.0 0.0 0.00 0.17 0.00 96 1020.9
20260906090004 46 238 0.0 0.9 0.00 0.17 0.00 96 1020.9
20260906085505 46 238 0.0 0.0 0.00 0.17 0.00 96 1020.9
20260906085005 46 238 0.0 0.9 0.00 0.17 0.00 96 1021.0
20260906084504 46 238 0.0 0.0 0.00 0.17 0.00 96 1021.1
20260906084004 46 238 0.0 0.9 0.00 0.17 0.00 96 1021.2
20260906083505 47 238 0.0 0.0 0.00 0.17 0.00 96 1021.3
20260906082504 47 238 0.0 0.0 0.00 0.17 0.00 96 1021.5
20260906081004 47 238 0.0 0.9 0.00 0.17 0.00 96 1021.6
20260906080505 47 238 0.0 0.9 0.00 0.17 0.00 96 1021.7
20260906080005 47 238 0.0 0.9 0.00 0.17 0.00 96 1021.6
20260906075504 47 238 0.0 0.0 0.00 0.17 0.00 96 1021.5
20260906075005 47 238 0.0 0.0 0.00 0.17 0.00 96 1021.6
20260906074504 47 238 0.0 0.0 0.00 0.17 0.00 96 1021.6
20260906074004 47 238 0.0 0.9 0.00 0.17 0.00 96 1021.6
20260906073505 47 238 0.0 0.0 0.00 0.17 0.00 96 1021.7
20260906073004 47 238 0.0 0.0 0.00 0.17 0.00 96 1021.6
20260906072504 47 238 0.0 0.0 0.00 0.17 0.00 96 1021.7
20260906072004 47 238 0.0 0.0 0.00 0.17 0.00 96 1021.7
20260906071504 47 238 0.0 0.0 0.00 0.17 0.00 96 1021.7
20260906070504 47 238 0.0 0.0 0.00 0.17 0.00 96 1021.7
20260906070004 47 238 0.0 0.0 0.00 0.17 0.00 96 1021.9
20260906064505 47 238 0.0 0.0 0.00 0.17 0.00 96 1021.9
20260906063505 47 238 0.0 0.0 0.00 0.17 0.00 96 1021.9
20260906062504 47 238 0.0 0.0 0.00 0.17 0.00 96 1021.8
20260906062004 47 238 0.0 0.0 0.00 0.17 0.00 96 1021.8
20260906061504 47 238 0.0 0.9 0.00 0.17 0.00 96 1021.9
20260906061004 47 238 0.0 0.9 0.00 0.17 0.00 96 1021.8
20260906060505 47 238 0.0 0.9 0.00 0.17 0.00 96 1021.9
20260906060005 47 238 0.0 0.9 0.00 0.17 0.00 96 1021.8
20260906055505 47 234 0.0 0.9 0.00 0.17 0.17 96 1021.9
20260906055005 47 284 0.0 0.0 0.00 0.17 0.17 96 1021.8
20260906054004 47 284 0.0 0.9 0.00 0.17 0.17 96 1021.9
20260906053005 47 289 0.9 0.9 0.00 0.17 0.17 96 1022.1
20260906052505 47 289 0.0 0.9 0.00 0.17 0.17 96 1022.0
20260906051504 47 287 0.9 1.7 0.00 0.17 0.17 96 1022.1
20260906051004 47 281 0.9 1.7 0.00 0.17 0.17 96 1022.2
20260906050505 47 275 0.9 2.6 0.00 0.17 0.17 96 1022.2
20260906045505 47 249 0.9 1.7 0.00 0.17 0.17 96 1022.2
20260906045004 47 244 0.9 1.7 0.00 0.17 0.17 96 1022.3
20260906044505 47 201 0.0 0.9 0.00 0.17 0.17 96 1022.3
20260906044005 47 201 0.0 0.0 0.00 0.17 0.17 96 1022.2
20260906043504 47 201 0.0 0.9 0.00 0.17 0.17 96 1022.1
20260906043006 47 201 0.0 0.0 0.00 0.17 0.17 96 1022.1
20260906042504 47 201 0.0 0.9 0.00 0.17 0.17 96 1022.1
20260906041506 47 278 0.0 0.0 0.00 0.17 0.17 96 1022.0
20260906040504 47 278 0.0 0.9 0.00 0.17 0.17 96 1021.8
20260906040005 47 284 0.9 0.9 0.00 0.17 0.17 96 1021.9
20260906034005 47 323 0.9 2.6 0.00 0.17 0.17 96 1021.5
20260906033505 47 334 0.0 0.9 0.00 0.17 0.17 96 1021.5
20260906033004 47 334 0.9 0.9 0.00 0.17 0.17 96 1021.5
20260906032504 47 334 0.9 1.7 0.00 0.17 0.17 96 1021.4
20260906032005 47 340 0.9 2.6 0.00 0.17 0.17 96 1021.4
20260906031507 46 355 0.9 2.6 0.00 0.17 0.17 96 1021.5
20260906031005 46 343 0.9 1.7 0.01 0.17 0.17 96 1021.4
20260906030505 46 348 0.0 1.7 0.01 0.17 0.17 96 1021.4
20260906030004 46 328 0.0 1.7 0.01 0.17 0.17 96 1021.4
20260906025504 47 348 0.9 2.6 0.01 0.17 0.17 96 1021.4
20260906025004 47 343 0.9 2.6 0.01 0.17 0.17 96 1021.3
20260906024504 47 338 1.7 2.6 0.01 0.17 0.17 96 1021.3
20260906023505 47 342 1.7 2.6 0.02 0.17 0.17 96 1021.3
20260906023004 48 317 0.9 1.7 0.02 0.17 0.17 96 1021.4
20260906022504 48 304 1.7 2.6 0.02 0.17 0.17 96 1021.5
20260906022005 48 297 0.9 1.7 0.02 0.17 0.17 96 1021.6
20260906021504 48 301 0.9 1.7 0.02 0.17 0.17 96 1021.6
20260906020504 48 293 0.9 0.9 0.01 0.17 0.17 96 1021.7
20260906020004 48 293 0.9 0.9 0.01 0.17 0.17 96 1021.7
20260906015004 48 316 0.9 1.7 0.02 0.17 0.17 96 1021.7
20260906013504 48 342 0.9 1.7 0.01 0.16 0.16 95 1021.4
20260906013004 48 345 0.9 1.7 0.01 0.16 0.16 95 1021.4
20260906012505 48 334 0.9 1.7 0.01 0.16 0.16 95 1021.5
20260906012004 48 336 0.9 1.7 0.02 0.16 0.16 95 1021.4
20260906011504 48 326 1.7 1.7 0.02 0.16 0.16 95 1021.4
20260906011004 48 318 1.7 2.6 0.02 0.16 0.16 95 1021.4
20260906010505 48 321 1.7 2.6 0.03 0.16 0.16 95 1021.3
20260906010004 48 320 0.9 1.7 0.03 0.16 0.16 95 1021.3
20260906005504 48 324 1.7 1.7 0.03 0.16 0.16 95 1021.3
20260906005004 48 343 1.7 2.6 0.03 0.15 0.15 95 1021.3
20260906004504 48 342 1.7 2.6 0.03 0.15 0.15 95 1021.3
20260906004004 48 331 1.7 2.6 0.04 0.15 0.15 95 1021.3
20260906003504 48 329 0.9 2.6 0.04 0.15 0.15 95 1021.4
20260906003005 48 325 0.9 2.6 0.04 0.15 0.15 95 1021.4
20260906002504 48 329 2.6 2.6 0.04 0.15 0.15 95 1021.3
20260906002004 48 336 1.7 2.6 0.03 0.14 0.14 95 1021.3
20260906001504 48 347 1.7 2.6 0.03 0.13 0.13 95 1021.3
20260906001004 48 333 1.7 2.6 0.03 0.13 0.13 95 1021.3
20260906000504 48 347 1.7 2.6 0.02 0.13 0.13 95 1021.3
20260906000004 48 330 1.7 2.6 0.02 0.13 0.13 95 1021.3
20260905235504 48 358 1.7 2.6 0.02 0.13 0.13 95 1021.4
20260905235005 48 332 2.6 2.6 0.02 0.12 0.12 95 1021.3